Regional Weather Roundup
Issued by NWS

Home | Current Version | Previous Version | Text Only | Print | Product List | Glossary Off
Versions: 1 2 3 4 5 6 7 8 9 10 11 12 13 14 15 16 17 18 19 20 21 22 23 24 25 26 27 28 29 30 31 32 33 34 35 36 37 38 39 40 41 42 43 44 45 46 47 48 49 50

062
ASUS45 KCYS 282110
RWRWY

WYOMING REGIONAL WEATHER ROUNDUP
NATIONAL WEATHER SERVICE CHEYENNE WY
300 PM MDT WED JUN 28 2017

NOTE:  "FAIR" INDICATES FEW OR NO CLOUDS BELOW 12,000 FEET
WITH NO SIGNIFICANT WEATHER AND/OR OBSTRUCTIONS TO VISIBILITY.

WYZ001-282200-
YELLOWSTONE NATIONAL PARK

CITY           SKY/WX    TMP DP  RH WIND       PRES   REMARKS
LK YELLOWSTONE   N/A     59  37  44 W8        30.02F
W YELLOWSTONE  NOT AVBL

$$
WYZ002>013-054>058-071-098>099-282200-
NORTHERN WYOMING

CITY           SKY/WX    TMP DP  RH WIND       PRES   REMARKS
JACKSON        SUNNY     59  45  58 SE9       30.00F
CODY           FAIR      73  43  33 SW9G18    29.83F
GREYBULL       LGT RAIN  67  53  61 SW8       29.81R
WORLAND        TSTM      63  52  67 NW17G25   29.85R
SHERIDAN       PTSUNNY   83  47  28 N7        29.74F
BUFFALO        FAIR      79  48  33 NW13G20   29.79F
GILLETTE       PTSUNNY   77  51  40 SE8       29.75F
NEWCASTLE      FAIR      81  37  21 SE6G16    29.78F

$$
WYZ014>020-022>026-101>103-282200-
CENTRAL WYOMING

CITY           SKY/WX    TMP DP  RH WIND       PRES   REMARKS
BIG PINEY      FAIR      63  37  38 NW21      30.03R
PINEDALE       LGT RAIN  54  39  58 N30G48    30.03R
DUBOIS         MOCLDY    59  36  41 MISG      30.03F
LANDER         FAIR      69  39  33 N30G41    29.85F
RIVERTON       FAIR      71  37  28 NW45G55   29.87R
CASPER         FAIR      85  28  12 W24G36    29.82F
DOUGLAS        FAIR      80  38  22 W12       29.81F

$$
WYZ021-027>030-104>119-282200-
SOUTHERN WYOMING

CITY           SKY/WX    TMP DP  RH WIND       PRES   REMARKS
EVANSTON       FAIR      76  25  15 W23G37    30.02F
KEMMERER         N/A     73  25  16 W21G36    30.02R
FORT BRIDGER   FAIR      80  18  10 W30G39    30.03S
ROCK SPRINGS   FAIR      81  16   9 W25G31    29.95S
DIXON          FAIR      83  26  12 SW17G29   29.96F
RAWLINS        FAIR      81  20  10 W31G40    29.93F
SARATOGA       RAIN      70  30  23 W21G39    30.03R
LARAMIE        FAIR      79  24  13 S24G35    29.98S
CHEYENNE       FAIR      77  36  22 SW9       29.92F
TORRINGTON     FAIR      88  36  15 VRB7      29.75F
PINE BLUFFS    MOCLDY    73  37  27 NW31G40   29.89R

$$




USA.gov is the U.S. government's official web portal to all federal, state and local government web resources and services.